Location: ????????
(56.1167°N, 38.6333°E)
Time: 08:53:57
(UTC+00:00)

Cosmos 2227 Rocket - Pass Details

Date: 18 November 2025
Orbit: 839 x 842 km, 71.0° (Epoch: 14 December)

Event Time Altitude Azimuth Distance (km) Brightness Sun altitude
Rises 17:33:42 0° 321° (NW) 3,406 6.1 -35.7°
Reaches altitude 10° 17:36:26 10° 331° (NNW) 2,468 5.1 -36.0°
Enters shadow 17:38:31 20° 346° (NNW) 1,846 4.2 -36.3°
